Portada
METAR-TAF:

METAR-TAF

Aeroports :

Ankeny Regional Airport

Ankeny, Iowa, Estats Units d'Amèrica

latitud: 41-41-24N, longitud: 093-33-57W, altitud: 275 m

Observació

L'informe es va fer fa 34 minuts, a les 17:55 UTC
Vent 9 kt del Oest amb ràfegues de 14 kt
Temperatura -1°C
Humitat 69%
Pressió 1025 hPa
Visibilitat: 16.1 km
Cel clar

METAR: KIKV 101755Z AUTO 28009G14KT 10SM CLR M01/M06 A3027 RMK AO2

Hora: 12:29 (18:29 UTC)


TAF: manca

Observacions i pronòstics meteorològics de més de 4000 aeroports (METAR i TAF).

Les estacions disponibles són els punts grocs i vermells al mapa.

Posi el ratolí al punt desitjat per veure el nom de l'estació.

Feu clic per veure les observacions i els pronòstics meteorològics.

Per canviar el mapa: feu clic els botons verds amb una creu de color negre per apropar; al botó verd amb un guió per allunyar la imatge; o en les fletxes verdes per a mapes adjacents.


METAR-TAF: